When you browse on this site, cookies collect data to enhance your experience and personalize the content and advertising you see.
Visit our Privacy Policy to learn more. By continuing to use the site, you agree to this use of cookies and data.
  • In Latvia
  • List of Countries
  • For 7 days
  • Water Temperature
  • Weather Map
  • Weather Widgets
  • user-avatar
    Login

    Hourly Weather Grenchen

    Today, 15 September, Sunday

    Time Temperature Precipitation Wind Pressure Humidity
    00:00 +16°C° 0 mm 0 mps 727 mmHg 96%
    01:00 +15°C° 0 mm 0 mps 726 mmHg 96%
    02:00 +15°C° 0 mm 0 mps 726 mmHg 96%
    03:00 +15°C° 0 mm 0 mps 726 mmHg 96%
    04:00 +15°C° 0 mm 0 mps 726 mmHg 96%
    05:00 +15°C° 0 mm 0 mps 726 mmHg 96%
    06:00 +18°C° 0 mm 1 mps 726 mmHg 95%
    07:00 +20°C° 0 mm 1 mps 726 mmHg 88%
    08:00 +22°C° 0 mm 1 mps 726 mmHg 80%
    09:00 +25°C° 0 mm 1 mps 726 mmHg 73%
    10:00 +26°C° 0 mm 1 mps 726 mmHg 68%
    11:00 +27°C° 0 mm 1 mps 726 mmHg 64%
    12:00 +29°C° 0 mm 1 mps 726 mmHg 59%
    13:00 +28°C° 0.1 mm 1 mps 725 mmHg 60%
    14:00 +28°C° 0.1 mm 1 mps 725 mmHg 62%
    15:00 +28°C° 0.1 mm 1 mps 724 mmHg 64%
    16:00 +26°C° 0.1 mm 1 mps 724 mmHg 72%
    17:00 +24°C° 0.1 mm 1 mps 724 mmHg 80%
    18:00 +20°C° 0.1 mm 0 mps 724 mmHg 89%
    19:00 +19°C° 0.1 mm 0 mps 724 mmHg 89%
    20:00 +18°C° 0.1 mm 0 mps 724 mmHg 90%
    21:00 +18°C° 0.1 mm 0 mps 724 mmHg 90%
    22:00 +20°C° 0 mm 1 mps 724 mmHg 90%
    23:00 +19°C° 0 mm 1 mps 724 mmHg 90%

    Tomorrow, 16 September, Monday

    Time Temperature Precipitation Wind Pressure Humidity
    00:00 +19°C° 0 mm 1 mps 724 mmHg 90%
    01:00 +19°C° 0 mm 1 mps 723 mmHg 90%
    02:00 +18°C° 0 mm 1 mps 723 mmHg 91%
    03:00 +18°C° 0 mm 1 mps 723 mmHg 91%
    04:00 +18°C° 0 mm 1 mps 722 mmHg 90%
    05:00 +18°C° 0 mm 1 mps 722 mmHg 90%
    06:00 +18°C° 0 mm 1 mps 722 mmHg 89%
    07:00 +21°C° 0 mm 1 mps 722 mmHg 81%
    08:00 +23°C° 0 mm 1 mps 723 mmHg 74%
    09:00 +25°C° 0 mm 1 mps 723 mmHg 66%
    10:00 +26°C° 0 mm 1 mps 723 mmHg 62%
    11:00 +27°C° 0 mm 1 mps 723 mmHg 57%
    12:00 +28°C° 0 mm 2 mps 722 mmHg 53%
    13:00 +28°C° 0.1 mm 2 mps 722 mmHg 56%
    14:00 +28°C° 0.1 mm 2 mps 722 mmHg 59%
    15:00 +27°C° 0.1 mm 2 mps 721 mmHg 63%
    16:00 +25°C° 0.2 mm 1 mps 721 mmHg 71%
    17:00 +23°C° 0.2 mm 1 mps 721 mmHg 79%
    18:00 +21°C° 0.2 mm 1 mps 721 mmHg 87%
    19:00 +20°C° 0 mm 1 mps 721 mmHg 88%
    20:00 +20°C° 0 mm 1 mps 721 mmHg 90%
    21:00 +17°C° 0 mm 0 mps 722 mmHg 91%
    22:00 +16°C° 0 mm 0 mps 721 mmHg 91%
    23:00 +16°C° 0 mm 0 mps 721 mmHg 91%

    Day after tomorrow, 17 September, Tuesday

    Time Temperature Precipitation Wind Pressure Humidity
    00:00 +15°C° 0 mm 0 mps 721 mmHg 92%
    01:00 +15°C° 0 mm 0 mps 721 mmHg 92%
    02:00 +15°C° 0 mm 0 mps 721 mmHg 91%
    03:00 +14°C° 0 mm 0 mps 720 mmHg 91%
    04:00 +14°C° 0 mm 0 mps 720 mmHg 91%
    05:00 +14°C° 0 mm 0 mps 720 mmHg 91%
    06:00 +15°C° 0 mm 1 mps 720 mmHg 91%
    07:00 +16°C° 0 mm 1 mps 721 mmHg 85%
    08:00 +19°C° 0 mm 1 mps 721 mmHg 79%
    09:00 +20°C° 0 mm 2 mps 721 mmHg 73%
    10:00 +21°C° 0 mm 2 mps 721 mmHg 68%
    11:00 +23°C° 0 mm 2 mps 721 mmHg 63%
    12:00 +24°C° 0 mm 2 mps 721 mmHg 58%
    13:00 +22°C° 0 mm 3 mps 720 mmHg 59%
    14:00 +22°C° 0 mm 3 mps 720 mmHg 60%
    15:00 +22°C° 0 mm 3 mps 720 mmHg 62%
    16:00 +20°C° 0 mm 2 mps 720 mmHg 70%
    17:00 +18°C° 0 mm 2 mps 720 mmHg 77%
    18:00 +16°C° 0 mm 2 mps 719 mmHg 85%
    19:00 +15°C° 0 mm 2 mps 720 mmHg 83%
    20:00 +15°C° 0 mm 2 mps 720 mmHg 81%
    21:00 +14°C° 0 mm 2 mps 721 mmHg 79%
    22:00 +13°C° 0 mm 2 mps 720 mmHg 78%
    23:00 +13°C° 0 mm 2 mps 720 mmHg 77%

    18 September, Wednesday

    Time Temperature Precipitation Wind Pressure Humidity
    00:00 +12°C° 0 mm 2 mps 720 mmHg 77%
    01:00 +10°C° 0 mm 2 mps 720 mmHg 79%
    02:00 +9°C° 0 mm 2 mps 720 mmHg 80%
    03:00 +9°C° 0 mm 2 mps 720 mmHg 82%
    04:00 +9°C° 0 mm 2 mps 720 mmHg 83%
    05:00 +8°C° 0 mm 2 mps 720 mmHg 83%
    06:00 +8°C° 0 mm 2 mps 720 mmHg 83%
    07:00 +10°C° 0 mm 3 mps 720 mmHg 77%
    08:00 +12°C° 0 mm 3 mps 721 mmHg 71%
    09:00 +13°C° 0 mm 4 mps 721 mmHg 65%
    10:00 +15°C° 0 mm 4 mps 721 mmHg 62%
    11:00 +17°C° 0 mm 4 mps 720 mmHg 59%
    12:00 +18°C° 0 mm 4 mps 720 mmHg 56%
    13:00 +18°C° 0 mm 4 mps 720 mmHg 56%
    14:00 +18°C° 0 mm 4 mps 720 mmHg 57%
    15:00 +17°C° 0 mm 4 mps 720 mmHg 58%
    16:00 +16°C° 0 mm 3 mps 720 mmHg 63%
    17:00 +13°C° 0 mm 3 mps 720 mmHg 69%
    18:00 +12°C° 0 mm 2 mps 721 mmHg 74%
    19:00 +10°C° 0 mm 2 mps 721 mmHg 76%
    20:00 +9°C° 0 mm 2 mps 721 mmHg 77%
    21:00 +9°C° 0 mm 2 mps 722 mmHg 79%
    22:00 +8°C° 0 mm 2 mps 722 mmHg 80%
    23:00 +8°C° 0 mm 2 mps 722 mmHg 82%

    19 September, Thursday

    Time Temperature Precipitation Wind Pressure Humidity
    00:00 +7°C° 0 mm 3 mps 722 mmHg 83%
    01:00 +7°C° 0 mm 2 mps 721 mmHg 84%
    02:00 +6°C° 0 mm 2 mps 721 mmHg 86%
    03:00 +6°C° 0 mm 2 mps 721 mmHg 88%
    04:00 +6°C° 0 mm 2 mps 721 mmHg 87%
    05:00 +5°C° 0 mm 3 mps 722 mmHg 85%
    06:00 +4°C° 0 mm 3 mps 722 mmHg 84%
    07:00 +7°C° 0 mm 3 mps 722 mmHg 75%
    08:00 +8°C° 0 mm 4 mps 723 mmHg 67%
    09:00 +10°C° 0 mm 5 mps 723 mmHg 58%
    10:00 +12°C° 0 mm 5 mps 723 mmHg 55%
    11:00 +14°C° 0 mm 5 mps 723 mmHg 51%
    12:00 +15°C° 0 mm 5 mps 723 mmHg 47%
    13:00 +15°C° 0 mm 5 mps 723 mmHg 48%
    14:00 +15°C° 0 mm 5 mps 723 mmHg 49%
    15:00 +15°C° 0 mm 5 mps 723 mmHg 50%
    16:00 +13°C° 0 mm 5 mps 723 mmHg 56%
    17:00 +11°C° 0 mm 4 mps 723 mmHg 63%
    18:00 +8°C° 0 mm 4 mps 724 mmHg 69%
    19:00 +7°C° 0 mm 4 mps 724 mmHg 72%
    20:00 +7°C° 0 mm 4 mps 725 mmHg 75%
    21:00 +6°C° 0 mm 4 mps 725 mmHg 78%
    22:00 +5°C° 0 mm 3 mps 725 mmHg 80%
    23:00 +5°C° 0 mm 3 mps 725 mmHg 81%

    20 September, Friday

    Time Temperature Precipitation Wind Pressure Humidity
    00:00 +4°C° 0 mm 3 mps 725 mmHg 83%
    01:00 +4°C° 0 mm 3 mps 725 mmHg 84%
    02:00 +3°C° 0 mm 3 mps 725 mmHg 85%
    03:00 +4°C° 0 mm 2 mps 724 mmHg 86%
    04:00 +4°C° 0 mm 2 mps 724 mmHg 85%
    05:00 +4°C° 0 mm 2 mps 724 mmHg 85%
    06:00 +4°C° 0 mm 2 mps 725 mmHg 84%
    07:00 +5°C° 0 mm 3 mps 725 mmHg 75%
    08:00 +7°C° 0 mm 4 mps 725 mmHg 65%
    09:00 +11°C° 0 mm 4 mps 725 mmHg 55%
    10:00 +12°C° 0 mm 4 mps 725 mmHg 52%
    11:00 +13°C° 0 mm 4 mps 725 mmHg 48%
    12:00 +14°C° 0 mm 4 mps 725 mmHg 44%
    13:00 +15°C° 0 mm 4 mps 725 mmHg 45%
    14:00 +15°C° 0 mm 4 mps 725 mmHg 47%
    15:00 +16°C° 0 mm 3 mps 724 mmHg 48%
    16:00 +13°C° 0 mm 3 mps 724 mmHg 56%
    17:00 +12°C° 0 mm 2 mps 724 mmHg 64%
    18:00 +9°C° 0 mm 2 mps 724 mmHg 72%
    19:00 +9°C° 0 mm 1 mps 724 mmHg 76%
    20:00 +8°C° 0 mm 1 mps 724 mmHg 80%
    21:00 +7°C° 0 mm 1 mps 725 mmHg 85%
    22:00 +7°C° 0 mm 1 mps 724 mmHg 86%
    23:00 +7°C° 0 mm 1 mps 724 mmHg 87%
    Show more